�������l�o���
Date,Time,MP-1(��Sv/h),MP-2(��Sv/h),MP-3(��Sv/h),MP-4(��Sv/h),MP-5(��Sv/h),MP-6(��Sv/h),MP-7(��Sv/h),MP-8(��Sv/h),����,����(m/s),���J
2017/06/16,00:00,1.023,1.632,1.082,1.925,1.341,0.540,0.986,0.911,��,3.6,�L
2017/06/16,00:10,1.022,1.632,1.082,1.927,1.340,0.541,0.988,0.909,��,2.0,�L
2017/06/16,00:20,1.023,1.632,1.082,1.931,1.341,0.544,0.988,0.911,�쐼,1.1,�L
2017/06/16,00:30,1.023,1.634,1.084,1.929,1.341,0.542,0.986,0.909,��쐼,1.4,�L
2017/06/16,00:40,1.022,1.632,1.084,1.926,1.340,0.542,0.989,0.911,��,2.3,�L
2017/06/16,00:50,1.022,1.634,1.085,1.928,1.342,0.544,0.988,0.910,��쓌,2.9,�L
2017/06/16,01:00,1.024,1.632,1.083,1.927,1.340,0.544,0.989,0.912,��쓌,3.6,�L
2017/06/16,01:10,1.024,1.631,1.086,1.928,1.344,0.546,0.989,0.911,��,4.3,�L
2017/06/16,01:20,1.023,1.629,1.084,1.928,1.339,0.546,0.987,0.911,��,3.6,�L
2017/06/16,01:30,1.024,1.633,1.082,1.929,1.336,0.545,0.986,0.912,��,3.8,�L
2017/06/16,01:40,1.021,1.630,1.081,1.927,1.337,0.545,0.984,0.910,��쐼,4.6,��
2017/06/16,01:50,1.023,1.628,1.082,1.925,1.336,0.543,0.985,0.912,��,4.3,��
2017/06/16,02:00,1.021,1.625,1.080,1.926,1.334,0.543,0.987,0.911,��,2.9,��
2017/06/16,02:10,1.018,1.625,1.079,1.924,1.334,0.541,0.987,0.911,��쓌,1.7,��
2017/06/16,02:20,1.019,1.625,1.079,1.924,1.330,0.542,0.985,0.909,��쓌,1.7,��
2017/06/16,02:30,1.018,1.625,1.079,1.925,1.331,0.542,0.986,0.909,��,0.9,��
2017/06/16,02:40,1.018,1.626,1.080,1.921,1.331,0.540,0.985,0.908,��,1.5,��
2017/06/16,02:50,1.015,1.622,1.080,1.921,1.332,0.539,0.984,0.907,�쐼,1.1,��
2017/06/16,03:00,1.015,1.622,1.078,1.920,1.328,0.539,0.985,0.909,��쓌,1.1,��
2017/06/16,03:10,1.015,1.620,1.074,1.918,1.330,0.540,0.985,0.908,-,CALM,��
2017/06/16,03:20,1.016,1.623,1.076,1.922,1.327,0.538,0.984,0.907,-,CALM,��
2017/06/16,03:30,1.017,1.622,1.074,1.920,1.328,0.540,0.984,0.908,-,CALM,��
2017/06/16,03:40,1.015,1.621,1.075,1.920,1.327,0.540,0.985,0.909,��,0.9,��
2017/06/16,03:50,1.015,1.620,1.075,1.921,1.326,0.540,0.982,0.908,��,0.9,��
2017/06/16,04:00,1.015,1.619,1.076,1.918,1.327,0.538,0.986,0.908,�쓌,1.2,��
2017/06/16,04:10,1.016,1.621,1.075,1.916,1.329,0.538,0.983,0.906,�쓌,1.2,��
2017/06/16,04:20,1.014,1.620,1.076,1.920,1.329,0.538,0.985,0.908,-,CALM,��
2017/06/16,04:30,1.014,1.617,1.074,1.919,1.327,0.539,0.984,0.908,-,CALM,�L
2017/06/16,04:40,1.014,1.620,1.074,1.920,1.326,0.539,0.983,0.907,��쓌,0.9,��
2017/06/16,04:50,1.016,1.621,1.074,1.918,1.327,0.538,0.985,0.908,��,1.1,��
2017/06/16,05:00,1.014,1.619,1.074,1.918,1.327,0.539,0.985,0.909,��쓌,1.4,��
2017/06/16,05:10,1.015,1.620,1.074,1.920,1.329,0.539,0.984,0.906,-,CALM,��
2017/06/16,05:20,1.014,1.619,1.075,1.920,1.328,0.538,0.984,0.907,-,CALM,��
2017/06/16,05:30,1.015,1.621,1.075,1.919,1.329,0.538,0.985,0.908,��쓌,1.4,��
2017/06/16,05:40,1.017,1.621,1.075,1.918,1.330,0.537,0.983,0.908,��,1.9,��
2017/06/16,05:50,1.014,1.618,1.076,1.919,1.328,0.538,0.986,0.907,��쐼,2.0,��
2017/06/16,06:00,1.017,1.622,1.074,1.921,1.327,0.539,0.985,0.909,��,2.2,��
2017/06/16,06:10,1.015,1.621,1.076,1.921,1.327,0.538,0.984,0.909,��쐼,1.9,��
2017/06/16,06:20,1.017,1.623,1.076,1.922,1.328,0.539,0.987,0.908,�쐼,1.7,��
2017/06/16,06:30,1.017,1.620,1.079,1.920,1.326,0.538,0.986,0.908,���쐼,1.9,��
2017/06/16,06:40,1.015,1.622,1.076,1.921,1.326,0.538,0.985,0.910,���k��,2.0,��
2017/06/16,06:50,1.015,1.620,1.081,1.920,1.330,0.539,0.986,0.909,�k��,2.0,��
2017/06/16,07:00,1.017,1.619,1.078,1.921,1.329,0.538,0.987,0.908,�k��,2.9,��
2017/06/16,07:10,1.016,1.616,1.079,1.921,1.326,0.536,0.988,0.909,�k,1.1,��
2017/06/16,07:20,1.016,1.624,1.078,1.922,1.331,0.535,0.987,0.909,�k�k��,1.5,��
2017/06/16,07:30,1.016,1.623,1.078,1.924,1.327,0.537,0.986,0.911,�k�k��,2.3,��
2017/06/16,07:40,1.015,1.621,1.077,1.921,1.330,0.536,0.986,0.910,�k�k��,3.0,��
2017/06/16,07:50,1.015,1.621,1.078,1.921,1.331,0.536,0.984,0.907,�k,4.4,��
2017/06/16,08:00,1.013,1.620,1.078,1.924,1.327,0.537,0.983,0.907,�k,3.8,��
2017/06/16,08:10,1.012,1.621,1.081,1.922,1.330,0.537,0.984,0.908,�k�k��,4.5,��
2017/06/16,08:20,1.014,1.621,1.078,1.923,1.328,0.535,0.981,0.907,�k�k��,4.6,�L
2017/06/16,08:30,1.014,1.620,1.078,1.924,1.326,0.535,0.981,0.906,�k,4.6,��
2017/06/16,08:40,1.013,1.619,1.078,1.921,1.330,0.533,0.984,0.905,�k�k��,5.3,��
2017/06/16,08:50,1.015,1.623,1.076,1.921,1.329,0.535,0.983,0.905,�k�k��,3.8,��
2017/06/16,09:00,1.016,1.621,1.075,1.921,1.330,0.534,0.984,0.907,�k��,2.6,��
2017/06/16,09:10,1.019,1.626,1.069,1.925,1.331,0.537,0.985,0.906,�k�k��,4.3,��
2017/06/16,09:20,1.019,1.625,1.064,1.927,1.329,0.537,0.983,0.907,�k��,3.8,��
2017/06/16,09:30,1.017,1.625,1.064,1.924,1.332,0.538,0.985,0.906,���k��,4.7,��
2017/06/16,09:40,1.018,1.624,1.067,1.923,1.331,0.536,0.984,0.905,���k��,3.1,��
2017/06/16,09:50,1.020,1.625,1.071,1.928,1.334,0.537,0.984,0.905,��,2.3,��
2017/06/16,10:00,1.022,1.627,1.076,1.928,1.333,0.535,0.985,0.905,���k��,1.5,��
2017/06/16,10:10,1.020,1.632,1.078,1.929,1.333,0.536,0.987,0.906,��,1.9,��
2017/06/16,10:20,1.020,1.629,1.075,1.926,1.335,0.538,0.985,0.909,���쓌,1.7,��
2017/06/16,10:30,1.020,1.631,1.081,1.929,1.336,0.537,0.987,0.909,��,0.6,��
2017/06/16,10:40,1.022,1.629,1.078,1.932,1.336,0.538,0.988,0.909,���쓌,1.4,��
2017/06/16,10:50,1.022,1.630,1.067,1.927,1.338,0.539,0.988,0.907,�쓌,1.7,��
2017/06/16,11:00,1.022,1.631,1.069,1.929,1.340,0.537,0.988,0.911,�쓌,2.6,��
2017/06/16,11:10,1.025,1.631,1.080,1.928,1.340,0.537,0.987,0.907,���쓌,1.9,��
2017/06/16,11:20,1.022,1.631,1.083,1.928,1.338,0.538,0.988,0.910,��,2.3,��
2017/06/16,11:30,1.023,1.634,1.084,1.929,1.341,0.539,0.987,0.909,���k��,3.5,��
2017/06/16,11:40,1.024,1.634,1.082,1.928,1.342,0.539,0.990,0.908,���k��,3.1,��
2017/06/16,11:50,1.024,1.634,1.084,1.927,1.344,0.538,0.988,0.909,���k��,3.3,��
2017/06/16,12:00,1.025,1.635,1.083,1.928,1.341,0.539,0.987,0.909,���k��,3.1,��
2017/06/16,12:10,1.024,1.637,1.083,1.931,1.345,0.540,0.988,0.910,���k��,2.0,��
2017/06/16,12:20,1.028,1.635,1.085,1.930,1.345,0.538,0.987,0.910,��,1.7,��
2017/06/16,12:30,1.025,1.638,1.084,1.927,1.346,0.537,0.988,0.911,�k��,2.6,��
2017/06/16,12:40,1.025,1.640,1.084,1.931,1.344,0.539,0.989,0.909,�k�k��,3.0,��
2017/06/16,12:50,1.026,1.636,1.084,1.933,1.348,0.540,0.988,0.909,�k��,2.3,��
2017/06/16,13:00,1.026,1.638,1.084,1.932,1.343,0.541,0.990,0.911,���k��,2.5,��
2017/06/16,13:10,1.026,1.636,1.078,1.934,1.347,0.541,0.988,0.910,���k��,1.7,��
2017/06/16,13:20,1.026,1.638,1.073,1.934,1.348,0.539,0.989,0.910,���k��,2.0,��
2017/06/16,13:30,1.027,1.638,1.073,1.931,1.347,0.541,0.990,0.910,��,2.0,��
2017/06/16,13:40,1.027,1.635,1.084,1.931,1.347,0.541,0.990,0.910,��,3.0,��
2017/06/16,13:50,1.028,1.638,1.084,1.932,1.347,0.542,0.989,0.909,�k��,3.0,��
2017/06/16,14:00,1.026,1.639,1.087,1.931,1.349,0.539,0.990,0.909,�k��,3.0,��
2017/06/16,14:10,1.026,1.642,1.085,1.932,1.348,0.540,0.991,0.909,�k��,2.8,��
2017/06/16,14:20,1.029,1.638,1.088,1.933,1.347,0.542,0.991,0.909,��,3.2,��
2017/06/16,14:30,1.026,1.639,1.085,1.934,1.349,0.541,0.989,0.910,��,2.3,��
2017/06/16,14:40,1.026,1.641,1.087,1.933,1.346,0.540,0.991,0.907,���k��,4.0,�L
2017/06/16,14:50,1.027,1.638,1.085,1.930,1.349,0.541,0.986,0.910,-,CALM,�L
2017/06/16,15:00,1.027,1.641,1.086,1.934,1.347,0.539,0.988,0.911,��,1.9,�L
2017/06/16,15:10,1.025,1.636,1.085,1.931,1.343,0.541,0.988,0.908,���k��,0.8,��
2017/06/16,15:20,1.025,1.641,1.079,1.933,1.344,0.539,0.979,0.904,��쐼,3.6,�L
2017/06/16,15:30,1.023,1.638,1.083,1.928,1.336,0.538,0.968,0.895,�k��,4.5,�L
2017/06/16,15:40,1.016,1.636,1.083,1.928,1.329,0.537,0.969,0.894,�k�k��,5.9,�L
2017/06/16,15:50,1.015,1.638,1.085,1.927,1.326,0.536,0.969,0.895,���k��,1.9,�L
2017/06/16,16:00,1.007,1.620,1.062,1.898,1.285,0.532,0.965,0.892,�쐼,1.5,�L
2017/06/16,16:10,0.959,1.526,1.017,1.835,1.249,0.528,0.958,0.888,���k��,4.3,�L
2017/06/16,16:20,0.953,1.511,1.014,1.832,1.250,0.530,0.958,0.890,�k,4.6,�L
2017/06/16,16:30,0.970,1.536,1.026,1.839,1.260,0.530,0.960,0.889,�k�k��,5.3,�L
2017/06/16,16:40,0.978,1.541,1.033,1.846,1.265,0.531,0.961,0.891,�k�k��,5.9,��
2017/06/16,16:50,0.977,1.546,1.032,1.850,1.267,0.530,0.961,0.891,�k�k��,3.0,�L
2017/06/16,17:00,0.977,1.549,1.034,1.853,1.267,0.531,0.963,0.893,�k��,1.9,��
2017/06/16,17:10,0.976,1.550,1.035,1.853,1.266,0.526,0.959,0.891,�k��,1.4,��
2017/06/16,17:20,0.977,1.550,1.037,1.853,1.266,0.530,0.961,0.892,�k,4.2,��
2017/06/16,17:30,0.976,1.551,1.034,1.849,1.266,0.528,0.962,0.890,�k,5.4,�L
2017/06/16,17:40,0.975,1.548,1.034,1.848,1.265,0.526,0.960,0.893,�k��,6.8,�L
2017/06/16,17:50,0.955,1.515,1.013,1.805,1.216,0.521,0.948,0.882,�쐼,5.0,�L
2017/06/16,18:00,0.937,1.494,1.002,1.795,1.204,0.514,0.933,0.863,��쓌,3.6,�L
2017/06/16,18:10,0.955,1.517,1.012,1.813,1.224,0.519,0.936,0.866,�k�k��,4.3,�L
2017/06/16,18:20,0.962,1.522,1.016,1.821,1.227,0.522,0.944,0.876,�k��,3.7,��
2017/06/16,18:30,0.964,1.527,1.020,1.826,1.230,0.525,0.946,0.880,�k�k��,4.2,�L
2017/06/16,18:40,0.965,1.527,1.021,1.827,1.233,0.526,0.948,0.882,�k�k��,4.1,�L
2017/06/16,18:50,0.966,1.531,1.024,1.826,1.235,0.525,0.950,0.882,�k��,4.8,��
2017/06/16,19:00,0.966,1.534,1.021,1.826,1.236,0.524,0.947,0.883,���k��,4.1,��
2017/06/16,19:10,0.968,1.533,1.025,1.828,1.238,0.525,0.950,0.884,���k��,4.6,��
2017/06/16,19:20,0.968,1.534,1.022,1.829,1.240,0.524,0.948,0.887,���k��,3.9,��
2017/06/16,19:30,0.968,1.535,1.022,1.830,1.239,0.524,0.950,0.885,��,3.8,��
2017/06/16,19:40,0.967,1.534,1.021,1.831,1.239,0.524,0.949,0.888,���k��,4.4,�L
2017/06/16,19:50,0.966,1.535,1.026,1.832,1.240,0.524,0.951,0.887,���k��,5.2,��
2017/06/16,20:00,0.965,1.536,1.022,1.831,1.239,0.522,0.952,0.888,���k��,6.0,��
2017/06/16,20:10,0.966,1.536,1.023,1.832,1.243,0.523,0.950,0.888,���k��,7.4,��
2017/06/16,20:20,0.964,1.535,1.022,1.832,1.242,0.520,0.951,0.888,���k��,7.8,��
2017/06/16,20:30,0.965,1.536,1.022,1.833,1.245,0.522,0.952,0.885,���k��,7.6,��
2017/06/16,20:40,0.967,1.538,1.023,1.832,1.243,0.522,0.952,0.888,�k��,8.0,��
2017/06/16,20:50,0.964,1.537,1.023,1.833,1.246,0.522,0.955,0.885,�k��,7.4,��
2017/06/16,21:00,0.966,1.534,1.023,1.834,1.245,0.522,0.953,0.889,�k��,6.9,��
2017/06/16,21:10,0.968,1.534,1.022,1.833,1.244,0.523,0.955,0.887,�k��,6.4,��
2017/06/16,21:20,0.967,1.534,1.022,1.839,1.246,0.523,0.955,0.888,�k��,5.7,��
2017/06/16,21:30,0.968,1.534,1.022,1.835,1.247,0.522,0.954,0.887,�k��,5.9,��
2017/06/16,21:40,0.967,1.535,1.023,1.837,1.247,0.523,0.954,0.888,�k��,5.9,��
2017/06/16,21:50,0.965,1.538,1.022,1.835,1.245,0.522,0.953,0.888,�k��,6.2,��
2017/06/16,22:00,0.964,1.539,1.021,1.839,1.249,0.521,0.956,0.887,�k��,6.2,��
2017/06/16,22:10,0.967,1.535,1.023,1.836,1.247,0.523,0.954,0.889,�k��,6.0,��
2017/06/16,22:20,0.966,1.537,1.024,1.839,1.247,0.521,0.955,0.887,�k��,5.9,��
2017/06/16,22:30,0.965,1.535,1.021,1.837,1.246,0.521,0.956,0.888,�k��,5.3,��
2017/06/16,22:40,0.964,1.538,1.023,1.839,1.248,0.521,0.954,0.887,�k��,5.3,��
2017/06/16,22:50,0.966,1.535,1.025,1.842,1.247,0.522,0.956,0.888,�k��,5.5,��
2017/06/16,23:00,0.965,1.534,1.024,1.838,1.248,0.520,0.957,0.887,�k�k��,5.5,��
2017/06/16,23:10,0.965,1.535,1.023,1.840,1.250,0.523,0.957,0.888,�k��,5.7,��
2017/06/16,23:20,0.967,1.537,1.022,1.842,1.249,0.521,0.956,0.888,�k�k��,5.3,��
2017/06/16,23:30,0.967,1.535,1.024,1.841,1.250,0.521,0.956,0.888,�k�k��,5.7,��
2017/06/16,23:40,0.966,1.540,1.022,1.840,1.248,0.523,0.956,0.889,�k�k��,6.1,��
2017/06/16,23:50,0.966,1.539,1.024,1.841,1.249,0.520,0.957,0.888,�k�k��,6.4,��
